Regional Weather Roundup
Issued by NWS

Home | Current Version | Previous Version | Text Only | Print | Product List | Glossary On
Versions: 1 2 3 4 5 6 7 8 9 10 11 12 13 14 15 16 17 18 19 20 21 22 23 24 25 26 27 28 29 30 31 32 33 34 35 36 37 38 39 40 41 42 43 44 45 46 47 48 49 50
000
ASUS43 KOAX 251410
RWRNE

WEATHER ROUNDUP FOR NEBRASKA
NATIONAL WEATHER SERVICE OMAHA NE
900 AM CDT MON JUL 25 2016

NOTES: SATELLITE DATA IS BEING USED TO AUGMENT CLOUD COVER ABOVE
       12000 FEET.
       "FAIR" INDICATES FEW OR NO CLOUDS BELOW 12,000 FEET WITH NO
       SIGNIFICANT WEATHER AND/OR OBSTRUCTIONS TO VISIBILITY.

  * THESE STATIONS DO NOT REPORT WEATHER SUCH AS RAIN...SNOW OR FOG.

NEZ001>004-019>022-054>056-251500-
NEBRASKA PANHANDLE

CITY           SKY/WX    TMP DP  RH WIND       PRES   REMARKS
SCOTTSBLUFF    SUNNY     66  56  70 SE12      30.18R
ALLIANCE       SUNNY     66  61  84 S12       30.18S
CHADRON        SUNNY     74  55  51 S16       30.13S
SIDNEY         SUNNY     67  57  70 SE14      30.21F
$$

NEZ057>060-069>072-079>082-251500-
SOUTHWEST NEBRASKA

CITY           SKY/WX    TMP DP  RH WIND       PRES   REMARKS
NORTH PLATTE   SUNNY     68  64  87 E8        30.19R
IMPERIAL       SUNNY     67  61  81 E5        30.20R
LEXINGTON      CLOUDY    70  63  78 E6        30.19R
MCCOOK         SUNNY     70  63  78 E9        30.17R
OGALLALA       SUNNY     69  63  80 SE7       30.20S
$$

NEZ005>010-023>029-035>040-094-251500-
NORTH CENTRAL NEBRASKA

CITY           SKY/WX    TMP DP  RH WIND       PRES   REMARKS
VALENTINE      SUNNY     73  59  61 S12       30.16R
AINSWORTH      SUNNY     73  54  51 S8        30.17R
BROKEN BOW     MOSUNNY   67  60  78 SE8       30.19R
O`NEILL        SUNNY     73  57  56 SE5       30.17R
ORD            CLOUDY    68  60  75 S3        30.17R
THEDFORD       SUNNY     73  62  68 S9        30.19S
$$

NEZ041-046>049-061>064-073>077-083>087-251500-
SOUTH CENTRAL NEBRASKA

CITY           SKY/WX    TMP DP  RH WIND       PRES   REMARKS
GRAND ISLAND   CLOUDY    70  63  78 VRB5      30.19R
AURORA         MOSUNNY   69  66  90 E3        30.18R
HASTINGS       CLOUDY    71  62  73 E9        30.18S
HEBRON         CLOUDY    70  65  84 E3        30.15R
HOLDREGE       CLOUDY    69  64  81 E9        30.18R
KEARNEY *      CLOUDY    70  63  78 E7        30.19S
YORK           CLOUDY    70  64  83 S5        30.17R
$$

NEZ011>018-030>034-042>045-251500-
NORTHEAST NEBRASKA

CITY           SKY/WX    TMP DP  RH WIND       PRES   REMARKS
NORFOLK        SUNNY     72  61  68 E5        30.15R
ALBION         CLOUDY    67  59  76 CALM      30.18R
BLAIR          MOSUNNY   74  66  77 NE8       30.12S
FREMONT        MOSUNNY   73  63  70 NE5       30.13S
TEKAMAH        MOSUNNY   73  65  75 VRB5      30.12S
WAYNE          SUNNY     69  64  85 CALM      30.15R
$$

NEZ050>053-065>068-078-088>093-251500-
SOUTHEAST NEBRASKA

CITY           SKY/WX    TMP DP  RH WIND       PRES   REMARKS
LINCOLN        CLOUDY    73  64  73 SE7       30.15R
OMAHA EPPLEY   MOSUNNY   72  65  78 NW3       30.11S
BEATRICE       CLOUDY    70  65  85 SE3       30.14R
FALLS CITY     CLOUDY    71  67  87 NE3       30.10R
NEBRASKA CITY  CLOUDY    70  68  91 CALM      30.13R
PLATTSMOUTH    CLOUDY    73  66  79 E5        30.12S
$$

NEZ044-045-051>053-067-251500-
OMAHA AREA

CITY           SKY/WX    TMP DP  RH WIND       PRES   REMARKS
OMAHA EPPLEY   MOSUNNY   72  65  78 NW3       30.11S
BLAIR          MOSUNNY   74  66  77 NE8       30.12S
FREMONT        MOSUNNY   73  63  70 NE5       30.13S
MILLARD        CLOUDY    75  65  69 SE5       30.12R
OFFUTT AFB     LGT RAIN  75  66  73 E7        30.11S
PLATTSMOUTH    CLOUDY    73  66  79 E5        30.12S
WAHOO          FAIR      72  65  80 CALM      30.14R
$$



USA.gov is the U.S. government's official web portal to all federal, state and local government web resources and services.